Zurück zum Katalog

STARLINK-6119

AktivKommunikationVLEO
NORAD 56125·PAYLOAD·🇺🇸 United States

Gestartet Mar 29, 2023 von Cape Canaveral Space Force Station

Loading…

Nächste Überflüge (nächste 24 Stunden)

TLE

AktuellSource: CelesTrak SupGP

Epoche: Sep 15, 2026, 02:34 UTC

1 56125C 23046AJ  26258.10743056  .00034734  00000+0  12582-2 0  2581
2 56125  43.0026 157.7098 0001272 271.0451  99.1688 15.27556585    16

Verfolge STARLINK-6119 in Echtzeit mit AllMySat

Download on the App Store